[[{"header":{"parameterUnit":"m.s-1","parameterCategory":2,"la1":30.2991,"la2":30.254,"lo1":-89.0895,"lo2":-89.0444,"dy":0.0017,"dx":0.0017,"nx":28,"ny":28,"refTime":"2025-01-21T09:00:00:Z","depth":"0","parameterNumber":2,"parameterNumberName":"U-component_of_CURRENTS"},"data":[0,0,0,0,0,0,0,0,0,0,0,0,0,0,0,0,0,0,0,0,0,0,0,0,0,0,0,0,0,0,0,0,0,0,0,0,0,0,0,0,0,0,0,0,0,0,0,0,0,0,0,0,0,0,0,0,0,0,0.2116,0.2116,0,0.211,0.2109,0.2109,0.209,0.209,0.209,0.2089,0.2051,0.205,0.2049,0,0,0,0,0,0,0,0,0,0,0,0,0,0.211,0.211,0.2116,0.2116,0.2117,0.211,0.2109,0.2109,0.209,0.209,0.2089,0.2089,0.2051,0.205,0.2049,0,0,0,0,0,0,0,0,0,0,0,0,0,0.2107,0.211,0.2116,0.2108,0.2108,0.211,0.2109,0.2109,0.209,0.209,0.2089,0.2089,0.2052,0.205,0.2049,0.2046,0,0,0.2045,0.2045,0,0,0,0,0,0,0,0,0.2107,0.2107,0.2109,0.2109,0.2108,0.2103,0.2093,0.2087,0.209,0.2094,0.2089,0.2089,0.2067,0.2065,0.2061,0.2044,0.2043,0.2045,0.2044,0.2044,0.2043,0,0,0,0,0,0,0,0.2107,0.2107,0.2111,0.2109,0.2109,0.2105,0.2103,0.2092,0.2079,0.2093,0.2093,0.2096,0.2066,0.2062,0.206,0.2042,0.2045,0.2044,0.2043,0.2043,0.2045,0.2046,0,0,0,0,0,0,0.2114,0.2107,0.2111,0.2111,0.211,0.2105,0.2104,0.2102,0.208,0.2078,0.2097,0.2096,0.2064,0.2061,0.2058,0.2074,0.2044,0.2042,0.2042,0.2044,0.2045,0.2046,0,0,0,0,0,0,0.2114,0.2114,0.2111,0.2111,0.2111,0.2106,0.2104,0.2103,0.2103,0.2083,0.208,0.2099,0.2064,0.206,0.2057,0.2072,0.2042,0.2041,0.2043,0.2044,0.2045,0.2093,0,0,0,0,0,0,0.2113,0.2114,0.2114,0.2112,0.2111,0.2119,0.2105,0.2103,0.2106,0.2105,0.2085,0.208,0.2063,0.2059,0.2056,0.2069,0.204,0.2042,0.2044,0.2045,0.209,0.2095,0.21,0,0,0,0,0,0.2113,0.2115,0.2114,0.2115,0.2112,0.212,0.2119,0.2112,0.2107,0.211,0.2099,0.2081,0.2067,0.2059,0.2055,0.2068,0.2041,0.2043,0.2045,0.2088,0.2094,0.21,0,0,0,0,0,0,0.211,0.2114,0.2112,0.2114,0.2121,0.2118,0.2121,0.2118,0.2112,0.211,0.2089,0.2085,0.209,0.2073,0.2065,0.2074,0.2052,0.2053,0.2086,0.2092,0.2097,0.2112,0.2039,0,0,0,0,0,0.2111,0.2114,0.212,0.2122,0.2127,0.2125,0.2127,0.2126,0.2122,0.2119,0.2107,0.2096,0.2094,0.2088,0.2082,0.2083,0.2088,0.209,0.2095,0.2099,0.211,0.2131,0.2139,0.2052,0.2052,0.2052,0,0,0.2109,0.2114,0.2114,0.2122,0.2124,0.2136,0.2125,0.2133,0.2143,0.2116,0.2121,0.2113,0.21,0.2105,0.2106,0.2092,0.2129,0.2102,0.2105,0.2114,0.2134,0.2142,0.215,0.2053,0.2053,0.2053,0,0,0.2114,0.2114,0.2121,0.213,0.2143,0.2145,0.2151,0.2155,0.2156,0.2162,0.2151,0.2156,0.2141,0.2142,0.2138,0.2167,0.2157,0.2161,0.2194,0.2214,0.2222,0.2228,0.2256,0.2265,0.216,0.216,0.216,0,0.2113,0.2122,0.2125,0.2139,0.215,0.2153,0.2168,0.2173,0.2175,0.2183,0.217,0.2177,0.2163,0.2182,0.2192,0.2179,0.219,0.2171,0.2222,0.2228,0.2234,0.2261,0.227,0.2163,0.2162,0.2162,0.2162,0,0.2125,0.2136,0.2144,0.2163,0.2174,0.2188,0.2201,0.2213,0.2216,0.222,0.2241,0.223,0.2236,0.2233,0.2219,0.2256,0.2251,0.2229,0.2208,0.2246,0.2271,0.228,0.2166,0.2165,0.2165,0.2164,0,0,0.2115,0.2146,0.2149,0.2164,0.2189,0.2199,0.2226,0.225,0.2273,0.2276,0.2305,0.2305,0.2305,0.2303,0.2291,0.2307,0.2358,0.2287,0.2287,0.2318,0.2414,0.2428,0.2439,0.2344,0.2345,0.2346,0.2419,0,0.2125,0.2153,0.2169,0.2198,0.2215,0.2235,0.2259,0.2282,0.2302,0.233,0.2335,0.2354,0.233,0.2338,0.2353,0.2358,0.2381,0.2341,0.237,0.2372,0.2381,0.2449,0.2446,0.2512,0.2427,0.2428,0.2429,0,0.2132,0.2151,0.2179,0.222,0.2229,0.2247,0.2293,0.2318,0.2362,0.238,0.2408,0.2412,0.2445,0.2413,0.2455,0.2431,0.2432,0.2432,0.2434,0.2438,0.2402,0.2458,0.253,0.2531,0.2442,0.2441,0.244,0,0.2119,0.216,0.2181,0.2194,0.2238,0.2256,0.2281,0.2327,0.2363,0.2416,0.245,0.248,0.2507,0.2515,0.2523,0.2492,0.2571,0.2523,0.254,0.2541,0.254,0.2539,0.2619,0.2558,0.2558,0.2558,0.2557,0,0.212,0.2138,0.2175,0.2185,0.2218,0.2249,0.2292,0.233,0.2392,0.2441,0.2471,0.2524,0.2535,0.2576,0.2563,0.2598,0.2606,0.2572,0.2569,0.2557,0.2557,0.2556,0.2538,0.256,0.256,0.2559,0.2559,0,0.2099,0.2124,0.2152,0.2196,0.2211,0.2232,0.2297,0.2331,0.2396,0.2467,0.249,0.2575,0.2637,0.2652,0.2684,0.2662,0.2641,0.2683,0.2677,0.2672,0.2668,0.2652,0.2603,0.2505,0.2713,0.2714,0.2715,0,0.2089,0.2102,0.215,0.2166,0.2184,0.2221,0.2248,0.232,0.2369,0.2498,0.2535,0.2632,0.27,0.2774,0.2775,0.279,0.269,0.2766,0.27,0.2699,0.2678,0.2549,0.2459,0.2722,0.2722,0.2723,0.2723,0,0.2072,0.209,0.2111,0.2146,0.2172,0.2204,0.2254,0.2296,0.239,0.2466,0.2577,0.2649,0.2765,0.2804,0.2842,0.2836,0.2694,0.2778,0.278,0.2709,0.2571,0.2465,0.2645,0.2729,0.2728,0.2728,0.2728,0.2728,0.2054,0.2065,0.2095,0.2123,0.2151,0.2173,0.218,0.2254,0.2329,0.2433,0.2551,0.2659,0.2804,0.2877,0.2846,0.2854,0.2741,0.2801,0.2789,0.2663,0.2548,0.2749,0.2822,0.2822,0.2822,0.2822,0.2822,0,0.2022,0.2041,0.207,0.209,0.2092,0.2125,0.2171,0.2173,0.2231,0.2389,0.2484,0.2693,0.2791,0.2869,0.2956,0.2895,0.2719,0.2836,0.2672,0.2579,0.2797,0.278,0.2844,0.2844,0.2844,0.2844,0.2844,0.2844,0.2006,0.2012,0.2028,0.2019,0.203,0.2003,0.2009,0.204,0.2134,0.2277,0.2419,0.2562,0.2862,0.3097,0.3101,0.3006,0.2755,0.2695,0.2589,0.2812,0.2807,0.2802,0.2785,0.2848,0.2848,0.2289,0.2286,0.2283]},{"header":{"parameterUnit":"m.s-1","parameterCategory":2,"la1":30.2991,"la2":30.254,"lo1":-89.0895,"lo2":-89.0444,"dy":0.0017,"dx":0.0017,"nx":28,"ny":28,"refTime":"2025-01-21T09:00:00:Z","depth":"0","parameterNumber":3,"parameterNumberName":"V-component_of_CURRENTS"},"data":[0,0,0,0,0,0,0,0,0,0,0,0,0,0,0,0,0,0,0,0,0,0,0,0,0,0,0,0,0,0,0,0,0,0,0,0,0,0,0,0,0,0,0,0,0,0,0,0,0,0,0,0,0,0,0,0,0,0,-0.0181,-0.0181,0,-0.0199,-0.0199,-0.02,-0.0213,-0.0214,-0.0214,-0.0214,-0.0217,-0.0217,-0.0217,0,0,0,0,0,0,0,0,0,0,0,0,0,-0.0199,-0.0198,-0.0181,-0.0181,-0.0181,-0.0199,-0.0199,-0.02,-0.0213,-0.0214,-0.0214,-0.0214,-0.0217,-0.0217,-0.0217,0,0,0,0,0,0,0,0,0,0,0,0,0,-0.0202,-0.0198,-0.0181,-0.019,-0.0191,-0.0199,-0.0199,-0.02,-0.0213,-0.0214,-0.0214,-0.0214,-0.0217,-0.0217,-0.0217,-0.0213,0,0,-0.0216,-0.0216,0,0,0,0,0,0,0,0,-0.0201,-0.0201,-0.0188,-0.0189,-0.019,-0.0204,-0.0207,-0.0203,-0.0213,-0.0205,-0.0214,-0.0214,-0.0211,-0.0211,-0.0215,-0.0213,-0.0214,-0.0216,-0.0216,-0.0216,-0.0216,0,0,0,0,0,0,0,-0.0201,-0.02,-0.0188,-0.0189,-0.019,-0.0208,-0.0208,-0.0207,-0.0207,-0.0206,-0.0207,-0.0209,-0.0211,-0.0215,-0.0215,-0.0214,-0.0216,-0.0216,-0.0216,-0.0216,-0.0212,-0.0212,0,0,0,0,0,0,-0.0196,-0.02,-0.0188,-0.0189,-0.0196,-0.0207,-0.0207,-0.02,-0.0207,-0.0208,-0.0208,-0.0209,-0.0215,-0.0215,-0.0215,-0.0202,-0.0216,-0.0216,-0.0216,-0.0212,-0.0212,-0.0211,0,0,0,0,0,0,-0.0196,-0.0194,-0.0187,-0.0195,-0.0196,-0.0206,-0.0198,-0.02,-0.0203,-0.0209,-0.021,-0.0209,-0.0215,-0.0215,-0.0212,-0.0203,-0.0216,-0.0216,-0.0212,-0.0212,-0.0212,-0.0182,0,0,0,0,0,0,-0.0196,-0.0194,-0.0187,-0.0195,-0.0195,-0.0185,-0.0198,-0.02,-0.0204,-0.0205,-0.021,-0.0211,-0.0215,-0.0212,-0.0212,-0.0203,-0.0216,-0.0212,-0.0212,-0.0212,-0.0183,-0.0181,-0.0179,0,0,0,0,0,-0.0197,-0.0182,-0.0187,-0.0185,-0.0185,-0.0185,-0.0187,-0.0196,-0.0204,-0.02,-0.0207,-0.0211,-0.0211,-0.0212,-0.0212,-0.0202,-0.0212,-0.0212,-0.0212,-0.0184,-0.0181,-0.0179,0,0,0,0,0,0,-0.0187,-0.0182,-0.0187,-0.0172,-0.0178,-0.0187,-0.0184,-0.0194,-0.0197,-0.0198,-0.0207,-0.0208,-0.0203,-0.0208,-0.0209,-0.0202,-0.0213,-0.0213,-0.0192,-0.019,-0.0187,-0.0177,-0.0216,0,0,0,0,0,-0.0182,-0.0168,-0.0173,-0.0162,-0.0162,-0.0175,-0.0177,-0.0183,-0.0188,-0.019,-0.0196,-0.0201,-0.0202,-0.02,-0.0203,-0.0196,-0.0212,-0.0192,-0.0189,-0.0187,-0.018,-0.02,-0.0199,-0.0211,-0.0211,-0.0211,0,0,-0.0175,-0.0171,-0.0164,-0.0159,-0.0164,-0.0154,-0.0176,-0.0175,-0.0167,-0.0189,-0.018,-0.0193,-0.02,-0.0194,-0.0192,-0.0195,-0.0194,-0.0187,-0.0185,-0.0179,-0.02,-0.0199,-0.0198,-0.0211,-0.0211,-0.0211,0,0,-0.0151,-0.0151,-0.0131,-0.0132,-0.0135,-0.014,-0.0138,-0.0147,-0.0151,-0.0149,-0.0163,-0.0171,-0.0172,-0.0176,-0.0177,-0.0166,-0.0185,-0.0168,-0.0144,-0.0164,-0.0163,-0.0163,-0.0188,-0.019,-0.0164,-0.0164,-0.0164,0,-0.0144,-0.0117,-0.0127,-0.0111,-0.0105,-0.013,-0.0109,-0.0117,-0.0125,-0.0124,-0.0141,-0.0153,-0.0163,-0.0153,-0.0152,-0.0159,-0.0177,-0.0152,-0.0161,-0.0161,-0.0161,-0.0187,-0.0189,-0.0163,-0.0163,-0.0163,-0.0163,0,-0.0105,-0.0087,-0.0076,-0.006,-0.0056,-0.0044,-0.0054,-0.0056,-0.007,-0.008,-0.0084,-0.0108,-0.0113,-0.0122,-0.0133,-0.0133,-0.0149,-0.0158,-0.0166,-0.0158,-0.0186,-0.0189,-0.0161,-0.0161,-0.0162,-0.0162,0,0,-0.0076,-0.0051,-0.0047,-0.0028,-0.0026,-0.0016,-0.0007,-0.0001,0.001,-0.0019,-0.001,-0.0033,-0.0056,-0.0061,-0.0082,-0.0103,-0.0126,-0.0128,-0.013,-0.015,-0.0175,-0.0202,-0.0209,-0.0138,-0.0139,-0.0139,-0.0198,0,-0.004,0.0008,0.0007,0.0049,0.0075,0.0056,0.007,0.0067,0.0055,0.0054,0.0014,0.0012,-0.0029,-0.0033,-0.0061,-0.0105,-0.0131,-0.0109,-0.0183,-0.0185,-0.0207,-0.0212,-0.0232,-0.0288,-0.0201,-0.0202,-0.0202,0,0.0004,0.0032,0.0082,0.0115,0.0123,0.0138,0.0158,0.0166,0.015,0.0138,0.0115,0.0083,0.0051,0.0011,-0.0066,-0.0051,-0.0108,-0.0153,-0.0156,-0.0191,-0.0217,-0.0281,-0.0297,-0.047,-0.0207,-0.0207,-0.0206,0,0.0044,0.0086,0.0133,0.0143,0.017,0.0183,0.0193,0.0191,0.0212,0.019,0.0198,0.0144,0.0125,0.0044,-0.0053,-0.0058,-0.0146,-0.0164,-0.0245,-0.0248,-0.0284,-0.029,-0.0472,-0.0221,-0.0221,-0.0221,-0.0221,0,0.0092,0.0127,0.0153,0.0178,0.0231,0.0227,0.0272,0.027,0.0277,0.0312,0.0245,0.0256,0.0132,0.0067,-0.0032,-0.0148,-0.0132,-0.0242,-0.0264,-0.0276,-0.0279,-0.0446,-0.0544,-0.0223,-0.0223,-0.0222,-0.0222,0,0.0136,0.015,0.0204,0.0238,0.0254,0.0289,0.0331,0.0364,0.0356,0.0397,0.0395,0.0342,0.0255,0.0122,-0.0009,-0.0112,-0.0337,-0.0271,-0.0281,-0.0303,-0.0541,-0.0635,-0.0841,-0.093,-0.0372,-0.0373,-0.0374,0,0.0164,0.0198,0.0253,0.0291,0.0308,0.0356,0.0395,0.0405,0.045,0.0459,0.0492,0.0414,0.0383,0.0166,-0.0038,-0.0227,-0.0381,-0.0374,-0.039,-0.0563,-0.0684,-0.0757,-0.0822,-0.0432,-0.0433,-0.0434,-0.0435,0,0.022,0.0236,0.0283,0.036,0.0408,0.0469,0.0525,0.0575,0.0593,0.0624,0.0654,0.0624,0.0406,0.0208,-0.0069,-0.0215,-0.0527,-0.0401,-0.058,-0.0749,-0.084,-0.0932,-0.039,-0.0444,-0.0443,-0.0442,-0.0442,-0.0441,0.0262,0.0305,0.0364,0.044,0.0499,0.0577,0.0635,0.0699,0.0772,0.0827,0.0787,0.0763,0.044,0.0062,-0.0166,-0.0611,-0.0606,-0.0738,-0.0837,-0.0893,-0.0989,-0.047,-0.0546,-0.0546,-0.0546,-0.0545,-0.0545,0,0.0322,0.0369,0.0442,0.0528,0.0599,0.0618,0.0723,0.078,0.0874,0.0915,0.0933,0.0739,0.0351,-0.0059,-0.0638,-0.0966,-0.11,-0.1169,-0.1288,-0.1332,-0.0868,-0.088,-0.1033,-0.1033,-0.1033,-0.1033,-0.1033,-0.1032,0.0355,0.0438,0.0476,0.0601,0.0658,0.0754,0.0816,0.0896,0.0949,0.0968,0.0933,0.0879,0.0487,-0.0496,-0.1232,-0.1405,-0.1665,-0.1732,-0.1851,-0.1549,-0.1516,-0.1485,-0.152,-0.1805,-0.1806,-0.2273,-0.2278,-0.2282]}],[{"header":{"parameterUnit":"m.s-1","parameterCategory":2,"la1":30.2991,"la2":30.254,"lo1":-89.0895,"lo2":-89.0444,"dy":0.0017,"dx":0.0017,"nx":28,"ny":28,"refTime":"2025-01-21T09:00:00:Z","depth":"2","parameterNumber":2,"parameterNumberName":"U-component_of_CURRENTS"},"data":[0,0,0,0,0,0,0,0,0,0,0,0,0,0,0,0,0,0,0,0,0,0,0,0,0,0,0,0,0,0,0,0,0,0,0,0,0,0,0,0,0,0,0,0,0,0,0,0,0,0,0,0,0,0,0,0,0,0,0.2067,0.2067,0,0.2062,0.2062,0.2061,0.2045,0.2045,0.2044,0.2044,0.201,0.2009,0.2008,0,0,0,0,0,0,0,0,0,0,0,0,0,0.206,0.206,0.2067,0.2067,0.2068,0.2062,0.2062,0.2061,0.2045,0.2045,0.2044,0.2044,0.201,0.2009,0.2008,0,0,0,0,0,0,0,0,0,0,0,0,0,0.2057,0.206,0.2067,0.2061,0.206,0.2062,0.2062,0.2061,0.2045,0.2045,0.2044,0.2044,0.201,0.2009,0.2008,0.2004,0,0,0.2004,0.2004,0,0,0,0,0,0,0,0,0.2057,0.2057,0.2061,0.2061,0.2061,0.2056,0.2047,0.2042,0.2045,0.2048,0.2044,0.2044,0.2024,0.2022,0.2018,0.2002,0.2001,0.2004,0.2003,0.2003,0.2002,0,0,0,0,0,0,0,0.2058,0.2057,0.2062,0.2062,0.2061,0.2057,0.2056,0.2045,0.2034,0.2047,0.2047,0.2051,0.2024,0.2019,0.2017,0.2,0.2004,0.2003,0.2002,0.2002,0.2006,0.2007,0,0,0,0,0,0,0.2064,0.2057,0.2063,0.2062,0.2062,0.2058,0.2057,0.2056,0.2035,0.2033,0.2051,0.205,0.2021,0.2018,0.2016,0.2034,0.2003,0.2002,0.2001,0.2005,0.2006,0.2007,0,0,0,0,0,0,0.2064,0.2064,0.2063,0.2062,0.2062,0.2058,0.2057,0.2056,0.2057,0.2039,0.2035,0.2055,0.2021,0.2017,0.2016,0.2031,0.2001,0.2,0.2004,0.2005,0.2007,0.2054,0,0,0,0,0,0,0.2063,0.2064,0.2065,0.2063,0.2063,0.2071,0.2058,0.2056,0.2061,0.2059,0.2041,0.2037,0.2021,0.2018,0.2015,0.2029,0.1999,0.2003,0.2005,0.2006,0.2051,0.2057,0.2061,0,0,0,0,0,0.2063,0.2066,0.2065,0.2066,0.2064,0.2072,0.2071,0.2066,0.2061,0.2065,0.2055,0.2038,0.2026,0.2018,0.2014,0.2028,0.2002,0.2004,0.2006,0.2049,0.2056,0.2061,0,0,0,0,0,0,0.206,0.2065,0.2064,0.2066,0.2073,0.207,0.2074,0.2072,0.2067,0.2066,0.2046,0.2042,0.2049,0.2032,0.2024,0.2035,0.2012,0.2014,0.2047,0.2052,0.2057,0.2072,0.1998,0,0,0,0,0,0.2062,0.2066,0.2071,0.2074,0.2079,0.2078,0.2081,0.208,0.2077,0.2075,0.2064,0.2054,0.2053,0.2048,0.2042,0.2044,0.2048,0.2051,0.2056,0.2061,0.2071,0.2091,0.2099,0.2013,0.2013,0.2013,0,0,0.206,0.2065,0.2066,0.2074,0.2077,0.2089,0.2079,0.2088,0.2098,0.2072,0.2079,0.2072,0.2058,0.2065,0.2066,0.2052,0.209,0.2063,0.2067,0.2075,0.2094,0.2103,0.211,0.2015,0.2014,0.2014,0,0,0.2066,0.2067,0.2075,0.2084,0.2097,0.2099,0.2106,0.211,0.2112,0.2119,0.2108,0.2115,0.2101,0.2102,0.2099,0.2128,0.2118,0.2123,0.2155,0.2175,0.2183,0.2189,0.2216,0.2225,0.2121,0.2122,0.2122,0,0.2066,0.2076,0.2079,0.2093,0.2104,0.2108,0.2123,0.2128,0.2131,0.2139,0.2128,0.2136,0.2123,0.2142,0.2152,0.214,0.2151,0.2133,0.2183,0.2189,0.2195,0.2221,0.223,0.2124,0.2124,0.2124,0.2123,0,0.2079,0.209,0.2098,0.2117,0.2129,0.2143,0.2156,0.2169,0.2172,0.2177,0.2199,0.2189,0.2196,0.2193,0.218,0.2216,0.2212,0.219,0.2168,0.2207,0.2231,0.224,0.2128,0.2127,0.2126,0.2125,0,0,0.207,0.2101,0.2104,0.2119,0.2144,0.2154,0.2181,0.2206,0.2229,0.2233,0.2262,0.2264,0.2264,0.2262,0.2252,0.2267,0.2318,0.2248,0.2248,0.2278,0.2373,0.2385,0.2395,0.2304,0.2305,0.2306,0.2377,0,0.2081,0.2109,0.2124,0.2153,0.217,0.219,0.2214,0.2237,0.2258,0.2286,0.2292,0.2312,0.2289,0.2298,0.2313,0.2318,0.2341,0.2301,0.233,0.2331,0.2339,0.2405,0.2185,0.2231,0.2385,0.2387,0.2388,0,0.2088,0.2107,0.2135,0.2175,0.2185,0.2202,0.2249,0.2274,0.2317,0.2336,0.2365,0.237,0.2403,0.2372,0.2413,0.239,0.2391,0.2391,0.2393,0.2394,0.2358,0.2216,0.224,0.2402,0.24,0.2399,0.2399,0,0.2076,0.2116,0.2139,0.2151,0.2194,0.2213,0.2238,0.2284,0.2319,0.2373,0.2406,0.2437,0.2465,0.2472,0.2481,0.2451,0.2528,0.248,0.2495,0.2496,0.231,0.2293,0.2515,0.2515,0.2515,0.2515,0.2514,0,0.2078,0.2096,0.2133,0.2143,0.2176,0.2207,0.2251,0.2288,0.235,0.2398,0.2429,0.2481,0.2492,0.2533,0.252,0.2553,0.2562,0.2527,0.2524,0.2323,0.2306,0.2446,0.2437,0.2517,0.2517,0.2516,0.2516,0,0.2058,0.2083,0.2111,0.2155,0.217,0.2191,0.2256,0.229,0.2355,0.2425,0.2448,0.2531,0.2592,0.2608,0.2638,0.2615,0.2632,0.2635,0.2412,0.2382,0.2573,0.2566,0.266,0.2662,0.2663,0.2663,0.2664,0,0.2049,0.2062,0.211,0.2126,0.2144,0.2182,0.2209,0.2281,0.2328,0.2456,0.2491,0.2587,0.2646,0.2717,0.2676,0.2677,0.2692,0.2487,0.2393,0.2606,0.2593,0.2583,0.2575,0.2158,0.2155,0.2152,0.215,0,0.2032,0.2051,0.2072,0.2108,0.2134,0.2164,0.2215,0.2256,0.2348,0.2418,0.2524,0.2588,0.2662,0.2574,0.2592,0.2556,0.2469,0.2435,0.2705,0.2175,0.2143,0.2127,0.2133,0.2124,0.2127,0.2129,0.213,0.2131,0.2016,0.2026,0.2057,0.2085,0.2113,0.2134,0.214,0.2187,0.2251,0.2294,0.2441,0.243,0.2455,0.2368,0.2309,0.2243,0.2409,0.2272,0.2275,0.2282,0.2232,0.2205,0.2188,0.2191,0.2193,0.2195,0.2197,0,0.1974,0.2003,0.2032,0.2051,0.204,0.2087,0.2131,0.2082,0.2096,0.2145,0.2188,0.2022,0.1992,0.2003,0.1872,0.1906,0.1824,0.1825,0.1673,0.1703,0.1728,0.1642,0.1445,0.1443,0.144,0.1438,0,0,0.1956,0.1957,0.1971,0.1953,0.1975,0.1916,0.1921,0.1861,0.1847,0.1776,0.1737,0.1847,0.1947,0.1643,0.1635,0.1512,0.1583,0.1457,0.2066,0.1916,0.1937,0.2004,0.191,0,0,0,0,0]},{"header":{"parameterUnit":"m.s-1","parameterCategory":2,"la1":30.2991,"la2":30.254,"lo1":-89.0895,"lo2":-89.0444,"dy":0.0017,"dx":0.0017,"nx":28,"ny":28,"refTime":"2025-01-21T09:00:00:Z","depth":"2","parameterNumber":3,"parameterNumberName":"V-component_of_CURRENTS"},"data":[0,0,0,0,0,0,0,0,0,0,0,0,0,0,0,0,0,0,0,0,0,0,0,0,0,0,0,0,0,0,0,0,0,0,0,0,0,0,0,0,0,0,0,0,0,0,0,0,0,0,0,0,0,0,0,0,0,0,-0.0098,-0.0098,0,-0.0116,-0.0117,-0.0117,-0.0132,-0.0132,-0.0132,-0.0133,-0.0136,-0.0136,-0.0136,0,0,0,0,0,0,0,0,0,0,0,0,0,-0.0114,-0.0113,-0.0098,-0.0098,-0.0098,-0.0116,-0.0117,-0.0117,-0.0132,-0.0132,-0.0133,-0.0133,-0.0136,-0.0136,-0.0136,0,0,0,0,0,0,0,0,0,0,0,0,0,-0.0117,-0.0113,-0.0098,-0.0108,-0.0109,-0.0116,-0.0117,-0.0117,-0.0132,-0.0132,-0.0133,-0.0133,-0.0136,-0.0136,-0.0136,-0.0131,0,0,-0.0136,-0.0136,0,0,0,0,0,0,0,0,-0.0117,-0.0116,-0.0106,-0.0107,-0.0108,-0.0122,-0.0124,-0.0121,-0.0132,-0.0123,-0.0133,-0.0133,-0.013,-0.0131,-0.0134,-0.0131,-0.0132,-0.0136,-0.0136,-0.0136,-0.0136,0,0,0,0,0,0,0,-0.0116,-0.0116,-0.0105,-0.0106,-0.0108,-0.0125,-0.0125,-0.0124,-0.0125,-0.0124,-0.0125,-0.0127,-0.0131,-0.0134,-0.0134,-0.0132,-0.0136,-0.0136,-0.0136,-0.0136,-0.0131,-0.0131,0,0,0,0,0,0,-0.0112,-0.0115,-0.0105,-0.0106,-0.0113,-0.0124,-0.0125,-0.0118,-0.0125,-0.0127,-0.0127,-0.0128,-0.0134,-0.0134,-0.0134,-0.0122,-0.0136,-0.0136,-0.0136,-0.0131,-0.0131,-0.0131,0,0,0,0,0,0,-0.0112,-0.011,-0.0104,-0.0112,-0.0112,-0.0123,-0.0116,-0.0118,-0.0122,-0.0128,-0.0129,-0.0129,-0.0134,-0.0134,-0.0132,-0.0123,-0.0136,-0.0136,-0.0131,-0.0131,-0.0131,-0.0103,0,0,0,0,0,0,-0.0112,-0.011,-0.0104,-0.0111,-0.0111,-0.0103,-0.0115,-0.0118,-0.0123,-0.0124,-0.013,-0.013,-0.0134,-0.0132,-0.0132,-0.0123,-0.0136,-0.0131,-0.0131,-0.0131,-0.0104,-0.0102,-0.01,0,0,0,0,0,-0.0112,-0.0098,-0.0103,-0.0102,-0.0102,-0.0102,-0.0104,-0.0114,-0.0123,-0.012,-0.0126,-0.013,-0.0131,-0.0131,-0.0131,-0.0123,-0.0131,-0.0131,-0.0131,-0.0105,-0.0102,-0.01,0,0,0,0,0,0,-0.0103,-0.0098,-0.0105,-0.009,-0.0096,-0.0105,-0.0103,-0.0113,-0.0116,-0.0118,-0.0127,-0.0127,-0.0123,-0.0128,-0.0129,-0.0122,-0.0133,-0.0132,-0.0113,-0.011,-0.0108,-0.0099,-0.0136,0,0,0,0,0,-0.0098,-0.0085,-0.0091,-0.008,-0.0081,-0.0094,-0.0096,-0.0103,-0.0108,-0.011,-0.0116,-0.0121,-0.0122,-0.012,-0.0123,-0.0116,-0.0132,-0.0112,-0.011,-0.0108,-0.0101,-0.0121,-0.012,-0.013,-0.013,-0.013,0,0,-0.0092,-0.0088,-0.0081,-0.0078,-0.0083,-0.0073,-0.0095,-0.0095,-0.0087,-0.0109,-0.0101,-0.0114,-0.012,-0.0114,-0.0112,-0.0116,-0.0116,-0.0108,-0.0106,-0.01,-0.0121,-0.012,-0.0119,-0.013,-0.013,-0.013,0,0,-0.0068,-0.007,-0.005,-0.0052,-0.0055,-0.006,-0.0059,-0.0068,-0.0073,-0.0071,-0.0085,-0.0093,-0.0094,-0.0097,-0.0098,-0.0087,-0.0106,-0.009,-0.0067,-0.0087,-0.0086,-0.0086,-0.0112,-0.0114,-0.0086,-0.0086,-0.0086,0,-0.0062,-0.0037,-0.0047,-0.0032,-0.0026,-0.0051,-0.0031,-0.0039,-0.0047,-0.0046,-0.0064,-0.0075,-0.0085,-0.0075,-0.0074,-0.0081,-0.0099,-0.0074,-0.0084,-0.0084,-0.0084,-0.0111,-0.0113,-0.0085,-0.0085,-0.0085,-0.0085,0,-0.0024,-0.0007,0.0003,0.0019,0.0022,0.0033,0.0024,0.0021,0.0007,-0.0003,-0.0008,-0.0032,-0.0036,-0.0046,-0.0056,-0.0057,-0.0072,-0.0082,-0.0089,-0.0081,-0.011,-0.0113,-0.0083,-0.0083,-0.0084,-0.0084,0,0,0.0003,0.0027,0.0031,0.005,0.0051,0.0062,0.007,0.0076,0.0086,0.0056,0.0065,0.0042,0.0018,0.0014,-0.0007,-0.0028,-0.0052,-0.0053,-0.0054,-0.0075,-0.0102,-0.0129,-0.0136,-0.0064,-0.0064,-0.0064,-0.0125,0,0.0037,0.0084,0.0084,0.0125,0.015,0.0132,0.0146,0.0143,0.013,0.0128,0.0088,0.0086,0.0046,0.0041,0.0012,-0.0031,-0.0058,-0.0035,-0.0108,-0.011,-0.0133,-0.0139,-0.0105,-0.0156,-0.0128,-0.0128,-0.0129,0,0.0079,0.0107,0.0157,0.0189,0.0198,0.0212,0.0231,0.0239,0.0223,0.0211,0.0188,0.0156,0.0123,0.0083,0.0006,0.0022,-0.0036,-0.008,-0.0083,-0.0118,-0.0143,-0.0158,-0.0163,-0.0134,-0.0134,-0.0134,-0.0133,0,0.0118,0.016,0.0205,0.0215,0.0243,0.0256,0.0265,0.0263,0.0284,0.0261,0.0268,0.0214,0.0195,0.0114,0.0018,0.0013,-0.0075,-0.0092,-0.0174,-0.0177,-0.0166,-0.0167,-0.015,-0.015,-0.015,-0.015,-0.0149,0,0.0165,0.0199,0.0225,0.0249,0.0302,0.0298,0.0342,0.0339,0.0346,0.0381,0.0314,0.0325,0.0201,0.0136,0.0038,-0.0078,-0.0062,-0.0171,-0.0193,-0.0156,-0.0156,-0.0149,-0.0148,-0.0152,-0.0151,-0.0151,-0.0151,0,0.0206,0.0221,0.0274,0.0308,0.0323,0.0358,0.04,0.0433,0.0424,0.0464,0.0462,0.0409,0.032,0.0189,0.0058,-0.0044,-0.0157,-0.0202,-0.0157,-0.0173,-0.0252,-0.0249,-0.0301,-0.0302,-0.0303,-0.0304,-0.0305,0,0.0234,0.0267,0.0322,0.0359,0.0376,0.0423,0.0462,0.0472,0.0516,0.0525,0.0557,0.0479,0.0446,0.023,0.0042,-0.0143,-0.017,-0.0249,-0.0257,-0.0251,-0.0267,-0.0262,-0.0257,-0.0234,-0.0234,-0.0234,-0.0234,0,0.0289,0.0303,0.035,0.0426,0.0473,0.0535,0.059,0.0639,0.0658,0.0689,0.0716,0.0685,0.0481,0.0304,0.0033,-0.0093,-0.0221,-0.026,-0.0258,-0.0203,-0.0194,-0.0208,-0.0204,-0.0236,-0.0236,-0.0236,-0.0236,-0.0236,0.0329,0.0372,0.043,0.0505,0.0562,0.0641,0.0698,0.0768,0.0842,0.0901,0.0849,0.0812,0.0592,0.0266,0.0029,-0.0229,-0.0221,-0.0308,-0.0305,-0.0303,-0.0286,-0.028,-0.0335,-0.0336,-0.0336,-0.0336,-0.0336,0,0.0396,0.0435,0.0507,0.0591,0.067,0.068,0.0785,0.0859,0.096,0.099,0.1006,0.082,0.0594,0.0329,-0.004,-0.0267,-0.0273,-0.0349,-0.0297,-0.0294,-0.0292,-0.0273,-0.0319,-0.032,-0.0321,-0.0321,0,0,0.0431,0.0516,0.0553,0.0679,0.0729,0.0841,0.0903,0.1007,0.1064,0.1117,0.1087,0.1014,0.0683,0.0426,0.0115,-0.0105,-0.0151,-0.0152,-0.014,-0.004,-0.0035,-0.0243,-0.0208,0,0,0,0,0]}],[{"header":{"parameterUnit":"m.s-1","parameterCategory":2,"la1":30.2991,"la2":30.254,"lo1":-89.0895,"lo2":-89.0444,"dy":0.0017,"dx":0.0017,"nx":28,"ny":28,"refTime":"2025-01-21T09:00:00:Z","depth":"4","parameterNumber":2,"parameterNumberName":"U-component_of_CURRENTS"},"data":[0,0,0,0,0,0,0,0,0,0,0,0,0,0,0,0,0,0,0,0,0,0,0,0,0,0,0,0,0,0,0,0,0,0,0,0,0,0,0,0,0,0,0,0,0,0,0,0,0,0,0,0,0,0,0,0,0,0,0.1245,0.1246,0,0.1286,0.1286,0.1286,0.1323,0.1324,0.1325,0.1325,0.1369,0.1369,0.137,0,0,0,0,0,0,0,0,0,0,0,0,0,0.1165,0.1166,0.1245,0.1246,0.1247,0.1286,0.1286,0.1286,0.1323,0.1324,0.1325,0.1325,0.1369,0.1369,0.137,0,0,0,0,0,0,0,0,0,0,0,0,0,0.12,0.1166,0.1245,0.1271,0.1274,0.1285,0.1286,0.1286,0.1323,0.1324,0.1325,0.1326,0.1368,0.1369,0.137,0.1356,0,0,0.1373,0.1373,0,0,0,0,0,0,0,0,0.1198,0.1202,0.1267,0.127,0.1273,0.1302,0.1274,0.131,0.1323,0.1302,0.1325,0.1326,0.1348,0.135,0.1352,0.1358,0.136,0.1373,0.1373,0.1374,0.1374,0,0,0,0,0,0,0,0.1195,0.1201,0.1259,0.1268,0.1271,0.1269,0.1275,0.128,0.1317,0.1304,0.1307,0.1315,0.1349,0.1352,0.1354,0.136,0.1373,0.1373,0.1374,0.1374,0.1446,0.1447,0,0,0,0,0,0,0.1196,0.1199,0.1258,0.126,0.1239,0.127,0.1277,0.129,0.1317,0.1323,0.1314,0.1317,0.135,0.1353,0.1356,0.1423,0.1374,0.1374,0.1375,0.1445,0.1446,0.1448,0,0,0,0,0,0,0.1194,0.1201,0.1256,0.1232,0.1239,0.1271,0.1285,0.129,0.1323,0.1325,0.1331,0.1345,0.1351,0.1354,0.1389,0.1421,0.1375,0.1375,0.1443,0.1445,0.1447,0.1504,0,0,0,0,0,0,0.1191,0.12,0.1221,0.1232,0.124,0.1283,0.1285,0.1291,0.1326,0.133,0.1353,0.1356,0.1352,0.1388,0.139,0.1422,0.1376,0.1441,0.1444,0.1446,0.15,0.1507,0.1514,0,0,0,0,0,0.1188,0.1209,0.1222,0.123,0.1265,0.1284,0.1288,0.1312,0.1326,0.1344,0.1364,0.1357,0.1406,0.139,0.1392,0.1425,0.144,0.1443,0.1446,0.1497,0.1506,0.1514,0,0,0,0,0,0,0.1183,0.1215,0.123,0.126,0.1281,0.1292,0.1314,0.1328,0.1357,0.1371,0.1372,0.1376,0.142,0.1414,0.1396,0.1454,0.1423,0.1427,0.1461,0.147,0.1477,0.1484,0.1377,0,0,0,0,0,0.1192,0.1222,0.1243,0.1271,0.1284,0.1305,0.1321,0.1338,0.1359,0.1374,0.1391,0.141,0.1429,0.1444,0.1456,0.1484,0.1484,0.1508,0.1515,0.1521,0.1529,0.1552,0.1562,0.1458,0.1458,0.1458,0,0,0.1199,0.1221,0.1239,0.1273,0.1293,0.1316,0.1318,0.1352,0.1379,0.1373,0.1424,0.1437,0.1442,0.1478,0.1497,0.1481,0.1552,0.1525,0.153,0.1535,0.1556,0.1566,0.1575,0.146,0.146,0.146,0,0,0.1215,0.1248,0.1275,0.1295,0.1333,0.1344,0.1362,0.1391,0.1417,0.1457,0.1464,0.1499,0.1525,0.1537,0.1544,0.1596,0.1588,0.1605,0.1646,0.1669,0.1678,0.1685,0.1704,0.1713,0.1608,0.1608,0.1608,0,0.1225,0.126,0.1284,0.131,0.1335,0.1361,0.139,0.1414,0.1454,0.1479,0.1486,0.1546,0.1552,0.1593,0.1616,0.1612,0.1623,0.1613,0.1678,0.1685,0.1692,0.1709,0.1718,0.1611,0.1611,0.161,0.161,0,0.125,0.1289,0.1306,0.1352,0.1378,0.141,0.1442,0.1482,0.1517,0.1538,0.1601,0.1615,0.1651,0.1661,0.1656,0.1712,0.1704,0.1684,0.1655,0.1706,0.1721,0.1729,0.1615,0.1614,0.1613,0.1613,0,0,0.1244,0.1312,0.1322,0.1351,0.1406,0.1426,0.1482,0.153,0.1573,0.1618,0.1672,0.1711,0.173,0.174,0.1745,0.1766,0.1825,0.1754,0.1754,0.1771,0.1882,0.1772,0.177,0.182,0.1821,0.1823,0.1876,0,0.126,0.1314,0.1347,0.1404,0.1433,0.1479,0.1525,0.1575,0.1622,0.1679,0.1712,0.1764,0.1756,0.1787,0.1811,0.1824,0.1849,0.1813,0.1833,0.1834,0.1727,0.1777,0.1828,0.1882,0.1884,0.1885,0.1886,0,0.1269,0.1307,0.1365,0.1435,0.1454,0.1496,0.1578,0.1622,0.17,0.174,0.1798,0.1825,0.1883,0.1862,0.1918,0.1899,0.1903,0.1903,0.1905,0.1787,0.1738,0.182,0.1901,0.1899,0.1898,0.1897,0.1896,0,0.1241,0.1318,0.1367,0.1392,0.1473,0.1519,0.1569,0.1648,0.1697,0.1787,0.1836,0.1895,0.1943,0.1961,0.1978,0.1958,0.2024,0.1989,0.1894,0.1886,0.1944,0.1935,0.2026,0.2026,0.2026,0.2026,0.2026,0,0.1229,0.1273,0.1366,0.1391,0.1457,0.1519,0.1596,0.1654,0.1746,0.18,0.1871,0.1918,0.1974,0.2014,0.2009,0.1981,0.2053,0.1912,0.1895,0.1967,0.196,0.195,0.194,0.2028,0.2027,0.2027,0.2027,0,0.1185,0.1248,0.1309,0.1409,0.1446,0.1494,0.1609,0.1656,0.1755,0.1831,0.1868,0.1963,0.2008,0.2045,0.2079,0.2014,0.1999,0.1971,0.2064,0.2049,0.1838,0.1831,0.1861,0.1858,0.1855,0.1853,0.1851,0,0.1162,0.1192,0.1309,0.1349,0.1402,0.1486,0.1539,0.1649,0.1698,0.1837,0.1861,0.1956,0.2,0.1959,0.2006,0.1992,0.1963,0.1943,0.1871,0.1842,0.1823,0.182,0.1817,0.1846,0.1845,0.1844,0.1844,0,0.1114,0.1172,0.1222,0.1305,0.1373,0.1433,0.152,0.1547,0.1665,0.1775,0.1804,0.1823,0.1872,0.1883,0.1895,0.1877,0.1945,0.1912,0.1917,0.1849,0.1824,0.1807,0.1808,0.1834,0.1835,0.1836,0.1837,0,0.1081,0.1102,0.1178,0.1241,0.1321,0.1351,0.1407,0.1459,0.1519,0.1666,0.1674,0.1763,0.1855,0.1826,0.1836,0.1815,0.1773,0.1697,0.1712,0.1724,0.1652,0.1598,0.1532,0,0,0,0,0,0.1031,0.1047,0.1104,0.1161,0.1237,0.1278,0.1378,0.1434,0.1552,0.153,0.1595,0.1627,0.164,0.1691,0.1638,0.1777,0.1785,0.1708,0.1705,0.1778,0.179,0.1717,0,0,0,0,0,0,0.0998,0.1046,0.1071,0.1081,0.1103,0.1165,0.122,0.13,0.1295,0.1419,0.1434,0.1527,0.1564,0.1646,0.1604,0.1619,0.1583,0.177,0.1766,0.1772,0.1782,0.1791,0.172,0,0,0,0,0]},{"header":{"parameterUnit":"m.s-1","parameterCategory":2,"la1":30.2991,"la2":30.254,"lo1":-89.0895,"lo2":-89.0444,"dy":0.0017,"dx":0.0017,"nx":28,"ny":28,"refTime":"2025-01-21T09:00:00:Z","depth":"4","parameterNumber":3,"parameterNumberName":"V-component_of_CURRENTS"},"data":[0,0,0,0,0,0,0,0,0,0,0,0,0,0,0,0,0,0,0,0,0,0,0,0,0,0,0,0,0,0,0,0,0,0,0,0,0,0,0,0,0,0,0,0,0,0,0,0,0,0,0,0,0,0,0,0,0,0,0.0199,0.0199,0,0.0185,0.0184,0.0184,0.0176,0.0176,0.0176,0.0176,0.0175,0.0175,0.0176,0,0,0,0,0,0,0,0,0,0,0,0,0,0.0209,0.0209,0.0199,0.0199,0.0199,0.0185,0.0184,0.0184,0.0176,0.0176,0.0176,0.0176,0.0175,0.0175,0.0176,0,0,0,0,0,0,0,0,0,0,0,0,0,0.0201,0.0209,0.0199,0.0192,0.0192,0.0185,0.0184,0.0184,0.0176,0.0176,0.0176,0.0176,0.0175,0.0175,0.0176,0.0179,0,0,0.0176,0.0176,0,0,0,0,0,0,0,0,0.0201,0.0201,0.0194,0.0193,0.0192,0.0182,0.0188,0.0183,0.0176,0.0183,0.0176,0.0176,0.0178,0.0178,0.0176,0.0179,0.0178,0.0176,0.0176,0.0176,0.0176,0,0,0,0,0,0,0,0.0202,0.0201,0.0194,0.0193,0.0192,0.0186,0.0185,0.0187,0.0182,0.0182,0.0181,0.0179,0.0178,0.0176,0.0176,0.0178,0.0176,0.0176,0.0176,0.0176,0.0172,0.0171,0,0,0,0,0,0,0.0203,0.0202,0.0194,0.0193,0.0196,0.0186,0.0185,0.0185,0.0182,0.0181,0.0179,0.0178,0.0176,0.0176,0.0176,0.0179,0.0176,0.0176,0.0176,0.0172,0.0172,0.0171,0,0,0,0,0,0,0.0204,0.0203,0.0195,0.0197,0.0195,0.0186,0.0187,0.0185,0.0183,0.0179,0.0179,0.0178,0.0176,0.0176,0.0177,0.0179,0.0176,0.0176,0.0172,0.0172,0.0171,0.0186,0,0,0,0,0,0,0.0204,0.0203,0.0205,0.0197,0.0195,0.0194,0.0187,0.0185,0.0181,0.018,0.0178,0.0178,0.0176,0.0177,0.0177,0.0179,0.0176,0.0172,0.0172,0.0172,0.0185,0.0186,0.0186,0,0,0,0,0,0.0205,0.0211,0.0206,0.0205,0.0198,0.0194,0.0193,0.0186,0.0181,0.0183,0.0179,0.0178,0.0175,0.0177,0.0178,0.018,0.0172,0.0172,0.0172,0.0185,0.0186,0.0186,0,0,0,0,0,0,0.0219,0.0211,0.0204,0.0209,0.0202,0.0193,0.0195,0.0187,0.0185,0.0185,0.0179,0.0179,0.0179,0.0176,0.0179,0.0176,0.0172,0.0172,0.0182,0.0183,0.0183,0.019,0.0176,0,0,0,0,0,0.0222,0.0224,0.0213,0.0217,0.0214,0.0203,0.0201,0.0196,0.0191,0.019,0.0185,0.0181,0.0178,0.0178,0.0175,0.0178,0.0163,0.0177,0.0177,0.0178,0.0183,0.0159,0.0158,0.017,0.017,0.017,0,0,0.0229,0.0224,0.0225,0.0219,0.0214,0.0218,0.0202,0.0201,0.0204,0.0191,0.0194,0.0184,0.0178,0.0178,0.0178,0.0177,0.0165,0.0177,0.0178,0.0182,0.0158,0.0157,0.0156,0.017,0.017,0.017,0,0,0.0245,0.0238,0.0246,0.0242,0.0234,0.0229,0.0229,0.0218,0.0214,0.0212,0.0202,0.0192,0.019,0.0184,0.0181,0.0182,0.0167,0.0179,0.0191,0.0167,0.0166,0.0165,0.0139,0.0135,0.0181,0.0181,0.0181,0,0.0254,0.0261,0.0248,0.0254,0.0256,0.0236,0.0247,0.0239,0.0229,0.0227,0.0216,0.02,0.0192,0.0191,0.0189,0.0184,0.0167,0.0191,0.0168,0.0167,0.0166,0.0139,0.0135,0.0182,0.0182,0.0182,0.0181,0,0.0274,0.028,0.0285,0.0287,0.0287,0.0292,0.028,0.0276,0.0264,0.0254,0.0243,0.0223,0.0215,0.0205,0.0198,0.0186,0.0175,0.0171,0.0169,0.0165,0.0137,0.0133,0.0183,0.0182,0.0182,0.0182,0,0,0.0294,0.03,0.0302,0.0313,0.0306,0.0312,0.0312,0.031,0.0315,0.0288,0.0288,0.0264,0.0245,0.024,0.0222,0.0198,0.0167,0.0182,0.018,0.0159,0.0112,0.0102,0.0096,0.0158,0.0157,0.0157,0.0094,0,0.0316,0.034,0.0334,0.036,0.0373,0.0358,0.0363,0.0355,0.0342,0.0335,0.0298,0.0291,0.0261,0.0255,0.0225,0.0186,0.0157,0.0185,0.0116,0.0114,0.0108,0.0091,0.0155,0.009,0.0089,0.0088,0.0088,0,0.034,0.0353,0.0384,0.0402,0.0406,0.0417,0.0425,0.0425,0.0404,0.0391,0.0366,0.0338,0.0302,0.0274,0.0197,0.0216,0.0166,0.0127,0.0124,0.0109,0.0096,0.0095,0.008,0.008,0.0081,0.0081,0.0082,0,0.0368,0.039,0.0419,0.0425,0.0438,0.0449,0.0453,0.0443,0.0455,0.0426,0.0428,0.0373,0.0352,0.0279,0.0197,0.0197,0.0107,0.0098,0.0039,0.0037,0.006,0.0062,0.0039,0.0039,0.004,0.004,0.004,0,0.0394,0.0419,0.0437,0.0452,0.049,0.0482,0.0514,0.0505,0.0502,0.052,0.0462,0.0458,0.0352,0.029,0.0207,0.0108,0.0112,0.0037,0.002,0.0066,0.0069,0.0056,0.0059,0.0037,0.0038,0.0038,0.0039,0,0.0424,0.0432,0.0471,0.0494,0.0506,0.0531,0.0563,0.0584,0.057,0.0589,0.0584,0.0522,0.0432,0.0322,0.0201,0.013,0.0033,-0.0003,0.0051,0.0039,-0.0026,-0.0022,-0.0078,-0.0079,-0.008,-0.008,-0.0081,0,0.0441,0.0464,0.0508,0.0536,0.0551,0.0587,0.0615,0.0617,0.0642,0.0631,0.0644,0.0565,0.0507,0.033,0.0205,0.0035,0.0012,-0.0041,-0.0037,-0.0028,-0.0039,-0.0033,-0.0028,-0.0082,-0.0082,-0.0082,-0.0083,0,0.0476,0.0494,0.0526,0.0584,0.0624,0.0669,0.0707,0.073,0.0732,0.0725,0.0693,0.0592,0.0486,0.0334,0.0198,0.0079,-0.0009,-0.0049,-0.0049,-0.0045,-0.0033,-0.0042,-0.0036,-0.0085,-0.0085,-0.0085,-0.0084,0,0.0508,0.0537,0.0581,0.0632,0.0685,0.0733,0.0748,0.0768,0.0784,0.0763,0.075,0.0624,0.0548,0.0357,0.0237,0.011,0.0077,0.0039,0.0035,0.0036,0.0084,0.0117,0.0095,0,0,0,0,0,0.0537,0.0573,0.0625,0.0678,0.073,0.0762,0.0805,0.0813,0.0814,0.0799,0.0774,0.0671,0.0476,0.0393,0.0264,0.0218,0.0054,0.0064,0.0009,-0.01,-0.0097,-0.0061,0,0,0,0,0,0,0.0558,0.0612,0.0631,0.0706,0.0749,0.0809,0.0838,0.0839,0.0826,0.0805,0.0704,0.0642,0.0454,0.0552,0.0264,0.0224,0.0172,-0.003,-0.0033,-0.0101,-0.0099,-0.0096,-0.0058,0,0,0,0,0]}]]